Date String (YYYY-MM-DD hh:mm:ss) UTC,Instrument flags,Ambient pressure (hPa),Sample flow (lpm),Bypass flow (lpm),Sample temperature (°C),Ambient temperature (°C),ASC tube jacket temperature (°C),LED temperature (°C),Box temperature (°C),Sample RH (%),Span deviation,Mass concentration (μg/m³),Mass concentration (μg/m³),Mass concentration (μg/m³)
DateTimeUTC,F1_M11,P_M11,Q1_M11,Q2_M11,T1_M11,T2_M11,T3_M11,T4_M11,T5_M11,U1_M11,ZSPAN_M11,X2_M11,X0_M11,X1_M11
2022-06-15 08:00:00,,0823.5,5.00,0.00,29.4,28.3,00.0,38.4,31.2,17.7,0000.0,0005.63,0014.90,0002.80
2022-06-15 08:01:00,,0823.4,5.00,0.00,29.4,28.3,00.0,38.4,31.2,17.7,0000.0,0005.62,0014.94,0002.80
2022-06-15 08:02:00,,0823.4,5.00,0.00,29.4,28.3,00.0,38.4,31.2,17.7,0000.0,0005.67,0015.10,0002.80
2022-06-15 08:03:00,,0823.4,5.00,0.00,29.4,28.3,00.0,38.4,31.2,17.7,0000.0,0005.65,0015.12,0002.75
2022-06-15 08:04:00,,0823.4,5.00,0.00,29.4,28.3,00.0,38.4,31.2,17.7,0000.0,0005.67,0015.42,0002.73
2022-06-15 08:05:00,,0823.4,5.01,0.00,29.4,28.3,00.0,38.4,31.2,17.8,0000.0,0005.65,0015.22,0002.74
2022-06-15 08:06:00,,0823.4,5.01,0.00,29.4,28.3,00.0,38.4,31.2,17.8,0000.0,0005.63,0015.09,0002.74
2022-06-15 08:07:00,,0823.4,5.00,0.00,29.4,28.3,00.0,38.4,31.2,17.8,0000.0,0005.49,0014.82,0002.73
2022-06-15 08:08:00,,0823.4,5.00,0.00,29.4,28.3,00.0,38.4,31.2,17.8,0000.0,0005.39,0014.54,0002.72
2022-06-15 08:09:00,,0823.5,5.01,0.00,29.4,28.3,00.0,38.4,31.2,17.7,0000.0,0005.35,0014.44,0002.71
2022-06-15 08:10:00,,0823.6,4.99,0.00,29.4,28.3,00.0,38.4,31.2,17.7,0000.0,0005.35,0014.02,0002.70
2022-06-15 08:11:00,,0823.6,4.99,0.00,29.4,28.3,00.0,38.4,31.2,17.7,0000.0,0005.34,0013.95,0002.68
2022-06-15 08:12:00,,0823.6,5.00,0.00,29.3,28.2,00.0,38.4,31.1,17.7,0000.0,0005.31,0013.79,0002.68
2022-06-15 08:13:00,,0823.6,5.01,0.00,29.3,28.2,00.0,38.3,31.1,17.7,0000.0,0005.32,0013.84,0002.69
2022-06-15 08:14:00,,0823.6,5.02,0.00,29.3,28.2,00.0,38.3,31.1,17.7,0000.0,0005.27,0013.55,0002.70
2022-06-15 08:15:00,,0823.6,4.99,0.00,29.3,28.2,00.0,38.3,31.1,17.8,0000.0,0005.26,0013.56,0002.73
2022-06-15 08:16:00,,0823.6,5.00,0.00,29.3,28.2,00.0,38.3,31.1,17.8,0000.0,0005.32,0014.11,0002.73
2022-06-15 08:17:00,,0823.6,5.00,0.00,29.3,28.2,00.0,38.3,31.1,17.8,0000.0,0005.36,0014.32,0002.73
2022-06-15 08:18:00,,0823.6,5.02,0.00,29.3,28.2,00.0,38.3,31.1,17.8,0000.0,0005.42,0014.49,0002.73
2022-06-15 08:19:00,,0823.5,4.99,0.00,29.3,28.1,00.0,38.3,31.1,17.8,0000.0,0005.48,0014.88,0002.73
2022-06-15 08:20:00,,0823.6,5.00,0.00,29.3,28.1,00.0,38.3,31.1,17.8,0000.0,0005.56,0015.47,0002.73
2022-06-15 08:21:00,,0823.5,5.00,0.00,29.3,28.1,00.0,38.3,31.1,17.8,0000.0,0005.58,0016.33,0002.74
2022-06-15 08:22:00,,0823.6,5.02,0.00,29.2,28.1,00.0,38.3,31.0,17.8,0000.0,0005.65,0016.11,0002.76
2022-06-15 08:23:00,,0823.6,5.00,0.00,29.2,28.1,00.0,38.3,31.0,17.8,0000.0,0005.68,0016.36,0002.76
2022-06-15 08:24:00,,0823.6,5.00,0.00,29.2,28.1,00.0,38.2,31.0,17.8,0000.0,0005.66,0016.70,0002.75
2022-06-15 08:25:00,,0823.7,4.99,0.00,29.2,28.1,00.0,38.2,31.0,17.8,0000.0,0005.67,0017.67,0002.77
2022-06-15 08:26:00,,0823.6,4.98,0.00,29.2,28.1,00.0,38.2,31.0,17.8,0000.0,0005.69,0017.85,0002.76
2022-06-15 08:27:00,,0823.6,5.00,0.00,29.2,28.1,00.0,38.2,31.0,17.8,0000.0,0005.67,0018.37,0002.76
2022-06-15 08:28:00,,0823.6,5.00,0.00,29.2,28.0,00.0,38.2,31.0,17.8,0000.0,0005.64,0018.93,0002.76
2022-06-15 08:29:00,,0823.7,5.00,0.00,29.2,28.0,00.0,38.2,31.0,17.8,0000.0,0005.66,0019.50,0002.75
2022-06-15 08:30:00,,0823.6,5.01,0.00,29.1,28.0,00.0,38.2,31.0,17.9,0000.0,0005.69,0019.42,0002.77
2022-06-15 08:31:00,,0823.6,4.99,0.00,29.1,28.0,00.0,38.2,31.0,17.9,0000.0,0005.68,0019.48,0002.77
2022-06-15 08:32:00,,0823.7,4.99,0.00,29.1,28.0,00.0,38.2,31.0,17.9,0000.0,0005.72,0019.23,0002.79
2022-06-15 08:33:00,,0823.7,5.00,0.00,29.1,28.0,00.0,38.2,31.0,17.9,0000.0,0005.67,0019.00,0002.76
2022-06-15 08:34:00,,0823.7,5.00,0.00,29.1,28.0,00.0,38.2,30.9,17.9,0000.0,0005.59,0018.57,0002.75
2022-06-15 08:35:00,,0823.7,5.01,0.00,29.1,28.0,00.0,38.1,30.9,17.9,0000.0,0005.52,0017.72,0002.73
2022-06-15 08:36:00,,0823.7,4.99,0.00,29.1,27.9,00.0,38.1,30.9,17.9,0000.0,0005.54,0016.83,0002.71
2022-06-15 08:37:00,,0823.7,5.00,0.00,29.1,27.9,00.0,38.1,30.9,17.9,0000.0,0005.54,0016.47,0002.71
2022-06-15 08:38:00,,0823.7,5.00,0.00,29.1,27.9,00.0,38.1,30.9,17.9,0000.0,0005.55,0015.65,0002.70
2022-06-15 08:39:00,,0823.7,5.00,0.00,29.1,27.9,00.0,38.1,30.9,18.0,0000.0,0005.55,0015.07,0002.71
2022-06-15 08:40:00,,0823.7,5.00,0.00,29.1,27.9,00.0,38.1,30.9,18.0,0000.0,0005.56,0014.06,0002.73
2022-06-15 08:41:00,,0823.7,5.00,0.00,29.0,27.9,00.0,38.1,30.9,18.0,0000.0,0005.51,0014.01,0002.75
2022-06-15 08:42:00,,0823.7,5.00,0.00,29.0,27.9,00.0,38.1,30.9,18.0,0000.0,0005.47,0013.53,0002.76
2022-06-15 08:43:00,,0823.7,5.00,0.00,29.0,27.9,00.0,38.1,30.8,18.0,0000.0,0005.42,0012.98,0002.73
2022-06-15 08:44:00,,0823.7,5.00,0.00,29.0,27.9,00.0,38.1,30.8,18.0,0000.0,0005.33,0012.70,0002.71
2022-06-15 08:45:00,,0823.7,5.00,0.00,29.0,27.9,00.0,38.0,30.8,18.0,0000.0,0005.30,0012.87,0002.73
2022-06-15 08:46:00,,0823.7,5.00,0.00,29.0,27.9,00.0,38.0,30.8,18.0,0000.0,0005.34,0013.00,0002.74
2022-06-15 08:47:00,,0823.7,5.01,0.00,29.0,27.9,00.0,38.0,30.8,18.0,0000.0,0005.37,0013.23,0002.75
2022-06-15 08:48:00,,0823.6,5.00,0.00,29.0,27.8,00.0,38.0,30.8,18.0,0000.0,0005.36,0013.20,0002.74
2022-06-15 08:49:00,,0823.7,5.00,0.00,29.0,27.8,00.0,38.0,30.8,18.0,0000.0,0005.32,0013.21,0002.74
2022-06-15 08:50:00,,0823.7,5.00,0.00,29.0,27.8,00.0,38.0,30.8,18.0,0000.0,0005.29,0013.08,0002.73
2022-06-15 08:51:00,,0823.7,4.99,0.00,29.0,27.8,00.0,38.0,30.8,18.0,0000.0,0005.22,0012.93,0002.73
2022-06-15 08:52:00,,0823.7,5.00,0.00,29.0,27.8,00.0,38.0,30.8,18.0,0000.0,0005.21,0013.10,0002.70
2022-06-15 08:53:00,,0823.7,4.99,0.00,28.9,27.8,00.0,38.0,30.8,18.0,0000.0,0005.16,0013.59,0002.69
2022-06-15 08:54:00,,0823.7,5.00,0.00,28.9,27.8,00.0,38.0,30.8,18.0,0000.0,0005.15,0013.56,0002.68
2022-06-15 08:55:00,,0823.7,5.01,0.00,28.9,27.8,00.0,38.0,30.8,18.0,0000.0,0005.24,0013.82,0002.69
2022-06-15 08:56:00,,0823.8,5.00,0.00,28.9,27.8,00.0,38.0,30.7,18.0,0000.0,0005.26,0013.84,0002.70
2022-06-15 08:57:00,,0823.9,4.99,0.00,28.9,27.8,00.0,38.0,30.7,18.0,0000.0,0005.28,0013.83,0002.69
2022-06-15 08:58:00,,0824.0,4.99,0.00,28.9,27.8,00.0,37.9,30.7,18.0,0000.0,0005.23,0013.73,0002.67
2022-06-15 08:59:00,,0824.0,5.00,0.00,28.9,27.7,00.0,37.9,30.7,18.0,0000.0,0005.24,0013.74,0002.66
